Time,TemperatureF,DewpointF,PressureIn,WindDirection,WindDirectionDegrees,WindSpeedMPH,WindSpeedGustMPH,Humidity,HourlyPrecipIn,Conditions,Clouds,dailyrainin,SoftwareType,DateUTC
2013-04-28 00:03:00,45.5,38.4,30.15,WNW,302,6.0,6.0,76,0.00,,---,0.00,VWS V14.00,2013-04-27 23:03:00,
2013-04-28 00:08:00,45.5,38.0,30.15,WNW,296,3.0,5.0,75,0.00,,---,0.00,VWS V14.00,2013-04-27 23:08:00,
2013-04-28 00:13:00,45.4,38.0,30.15,WNW,283,6.0,6.0,75,0.00,,---,0.00,VWS V14.00,2013-04-27 23:13:00,
2013-04-28 00:18:00,45.4,37.6,30.14,WNW,297,6.0,9.0,74,0.00,,---,0.00,VWS V14.00,2013-04-27 23:18:00,
2013-04-28 00:23:00,45.3,37.5,30.14,WNW,294,3.0,5.0,74,0.00,,---,0.00,VWS V14.00,2013-04-27 23:23:00,
2013-04-28 00:28:00,45.3,37.5,30.14,WNW,294,3.0,6.0,74,0.00,,---,0.00,VWS V14.00,2013-04-27 23:28:00,
2013-04-28 00:33:00,45.3,37.5,30.14,WNW,294,3.0,3.0,74,0.00,,---,0.00,VWS V14.00,2013-04-27 23:33:00,
2013-04-28 00:38:00,45.3,37.5,30.13,WNW,294,1.0,3.0,74,0.00,,---,0.00,VWS V14.00,2013-04-27 23:38:00,
2013-04-28 00:43:00,45.3,37.5,30.13,WNW,292,7.0,7.0,74,0.00,,---,0.00,VWS V14.00,2013-04-27 23:43:00,
2013-04-28 00:48:00,45.3,37.5,30.13,WNW,290,3.0,4.0,74,0.00,,---,0.00,VWS V14.00,2013-04-27 23:48:00,
2013-04-28 00:54:00,45.2,37.4,30.12,West,280,5.0,5.0,74,0.00,,---,0.00,VWS V14.00,2013-04-27 23:54:00,
2013-04-28 00:59:00,45.2,37.4,30.12,West,280,4.0,5.0,74,0.00,,---,0.00,VWS V14.00,2013-04-27 23:59:00,
2013-04-28 01:04:00,45.1,37.3,30.12,West,265,6.0,9.0,74,0.00,,---,0.00,VWS V14.00,2013-04-28 00:04:00,
2013-04-28 01:09:00,45.1,37.7,30.12,West,273,5.0,6.0,75,0.00,,---,0.00,VWS V14.00,2013-04-28 00:09:00,
2013-04-28 01:14:00,45.2,37.8,30.12,West,260,4.0,9.0,75,0.00,,---,0.00,VWS V14.00,2013-04-28 00:14:00,
2013-04-28 01:19:00,45.1,37.7,30.11,West,276,12.0,12.0,75,0.00,,---,0.00,VWS V14.00,2013-04-28 00:19:00,
2013-04-28 01:24:00,45.1,38.0,30.11,West,265,8.0,8.0,76,0.00,,---,0.00,VWS V14.00,2013-04-28 00:24:00,
2013-04-28 01:29:00,45.1,38.0,30.11,West,279,6.0,10.0,76,0.00,,---,0.00,VWS V14.00,2013-04-28 00:29:00,
2013-04-28 01:34:00,45.1,38.0,30.11,West,281,8.0,10.0,76,0.00,,---,0.00,VWS V14.00,2013-04-28 00:34:00,
2013-04-28 01:39:00,45.0,37.9,30.11,West,271,12.0,12.0,76,0.00,,---,0.00,VWS V14.00,2013-04-28 00:39:00,
2013-04-28 01:44:00,44.9,37.8,30.11,West,275,7.0,10.0,76,0.00,,---,0.00,VWS V14.00,2013-04-28 00:44:00,
2013-04-28 01:49:00,44.7,36.9,30.10,West,265,9.0,13.0,74,0.00,,---,0.00,VWS V14.00,2013-04-28 00:49:00,
2013-04-28 01:54:00,44.6,36.8,30.10,WSW,255,11.0,11.0,74,0.00,,---,0.00,VWS V14.00,2013-04-28 00:54:00,
2013-04-28 01:59:00,44.6,36.8,30.10,WNW,287,7.0,7.0,74,0.00,,---,0.00,VWS V14.00,2013-04-28 00:59:00,
2013-04-28 02:04:00,44.5,37.1,30.10,West,266,7.0,9.0,75,0.00,,---,0.00,VWS V14.00,2013-04-28 01:04:00,
2013-04-28 02:09:00,44.4,37.0,30.10,WSW,258,5.0,9.0,75,0.00,,---,0.00,VWS V14.00,2013-04-28 01:09:00,
2013-04-28 02:14:00,44.3,36.9,30.09,West,276,17.0,17.0,75,0.00,,---,0.00,VWS V14.00,2013-04-28 01:14:00,
2013-04-28 02:19:00,44.3,36.9,30.09,WSW,254,6.0,9.0,75,0.00,,---,0.00,VWS V14.00,2013-04-28 01:19:00,
2013-04-28 02:24:00,44.2,37.1,30.09,West,274,6.0,9.0,76,0.00,,---,0.00,VWS V14.00,2013-04-28 01:24:00,
2013-04-28 02:29:00,44.2,37.1,30.09,West,272,13.0,15.0,76,0.00,,---,0.00,VWS V14.00,2013-04-28 01:29:00,
2013-04-28 02:34:00,44.1,37.4,30.09,West,267,12.0,12.0,77,0.00,,---,0.00,VWS V14.00,2013-04-28 01:34:00,
2013-04-28 02:39:00,44.0,37.3,30.08,West,274,7.0,9.0,77,0.00,,---,0.00,VWS V14.00,2013-04-28 01:39:00,
2013-04-28 02:44:00,44.0,37.6,30.08,West,273,8.0,11.0,78,0.00,,---,0.00,VWS V14.00,2013-04-28 01:44:00,
2013-04-28 02:49:00,44.0,37.6,30.08,West,275,9.0,11.0,78,0.00,,---,0.00,VWS V14.00,2013-04-28 01:49:00,
2013-04-28 02:54:00,44.0,37.6,30.07,West,265,12.0,13.0,78,0.00,,---,0.00,VWS V14.00,2013-04-28 01:54:00,
2013-04-28 02:59:00,43.9,37.5,30.07,West,269,13.0,13.0,78,0.00,,---,0.00,VWS V14.00,2013-04-28 01:59:00,
2013-04-28 03:04:00,43.9,37.8,30.06,WNW,290,9.0,16.0,79,0.00,,---,0.00,VWS V14.00,2013-04-28 02:04:00,
2013-04-28 03:09:00,43.9,37.8,30.07,West,263,11.0,18.0,79,0.00,,---,0.00,VWS V14.00,2013-04-28 02:09:00,
2013-04-28 03:15:00,43.9,38.1,30.06,West,271,16.0,16.0,80,0.00,,---,0.00,VWS V14.00,2013-04-28 02:15:00,
2013-04-28 03:20:00,43.9,38.1,30.06,West,278,18.0,19.0,80,0.00,,---,0.00,VWS V14.00,2013-04-28 02:20:00,
2013-04-28 03:25:00,43.9,38.1,30.05,WNW,288,16.0,22.0,80,0.00,,---,0.00,VWS V14.00,2013-04-28 02:25:00,
2013-04-28 03:30:00,43.8,38.0,30.05,West,260,17.0,22.0,80,0.00,,---,0.00,VWS V14.00,2013-04-28 02:30:00,
2013-04-28 03:35:00,43.8,38.0,30.04,WSW,255,20.0,23.0,80,0.00,,---,0.00,VWS V14.00,2013-04-28 02:35:00,
2013-04-28 03:40:00,43.9,38.1,30.04,West,260,10.0,13.0,80,0.00,,---,0.00,VWS V14.00,2013-04-28 02:40:00,
2013-04-28 03:45:00,43.9,38.1,30.04,West,279,6.0,9.0,80,0.00,,---,0.00,VWS V14.00,2013-04-28 02:45:00,
2013-04-28 03:51:00,43.8,38.0,30.03,West,266,13.0,19.0,80,0.00,,---,0.00,VWS V14.00,2013-04-28 02:51:00,
2013-04-28 03:57:00,43.8,38.0,30.03,WSW,257,13.0,15.0,80,0.00,,---,0.00,VWS V14.00,2013-04-28 02:57:00,
2013-04-28 04:02:00,43.8,38.0,30.03,WNW,283,13.0,13.0,80,0.00,,---,0.00,VWS V14.00,2013-04-28 03:02:00,
2013-04-28 04:07:00,43.8,38.4,30.02,West,279,11.0,17.0,81,0.00,,---,0.00,VWS V14.00,2013-04-28 03:07:00,
2013-04-28 04:12:00,43.8,38.4,30.02,West,264,12.0,17.0,81,0.00,,---,0.00,VWS V14.00,2013-04-28 03:12:00,
2013-04-28 04:17:00,43.8,38.4,30.02,West,264,12.0,17.0,81,0.00,,---,0.00,VWS V14.00,2013-04-28 03:17:00,
2013-04-28 04:22:00,43.8,38.4,30.01,WNW,284,13.0,22.0,81,0.00,,---,0.00,VWS V14.00,2013-04-28 03:22:00,
2013-04-28 04:27:00,43.8,38.4,30.01,WNW,288,14.0,15.0,81,0.00,,---,0.00,VWS V14.00,2013-04-28 03:27:00,
2013-04-28 04:32:00,43.9,38.5,30.01,WSW,238,7.0,21.0,81,0.00,,---,0.00,VWS V14.00,2013-04-28 03:32:00,
2013-04-28 04:37:00,43.9,38.5,30.01,West,261,14.0,18.0,81,0.00,,---,0.00,VWS V14.00,2013-04-28 03:37:00,
2013-04-28 04:42:00,43.9,38.5,30.01,West,278,7.0,18.0,81,0.00,,---,0.00,VWS V14.00,2013-04-28 03:42:00,
2013-04-28 04:47:00,44.0,38.9,30.01,West,266,10.0,19.0,82,0.00,,---,0.00,VWS V14.00,2013-04-28 03:47:00,
2013-04-28 04:52:00,44.0,38.9,30.00,West,269,9.0,21.0,82,0.00,,---,0.00,VWS V14.00,2013-04-28 03:52:00,
2013-04-28 04:57:00,44.0,38.9,30.00,West,281,12.0,17.0,82,0.00,,---,0.00,VWS V14.00,2013-04-28 03:57:00,
2013-04-28 05:01:00,44.1,39.0,30.00,West,276,18.0,18.0,82,0.00,,---,0.00,VWS V14.00,2013-04-28 04:01:00,
2013-04-28 05:02:00,44.1,39.0,30.00,WSW,258,12.0,16.0,82,0.00,,---,0.00,VWS V14.00,2013-04-28 04:02:00,
2013-04-28 05:03:00,44.0,38.9,30.00,West,261,10.0,19.0,82,0.00,,---,0.00,VWS V14.00,2013-04-28 04:03:00,
2013-04-28 05:04:00,44.0,38.9,30.00,WSW,244,13.0,17.0,82,0.00,,---,0.00,VWS V14.00,2013-04-28 04:04:00,
2013-04-28 05:05:00,44.0,38.9,30.00,WSW,245,11.0,18.0,82,0.00,,---,0.00,VWS V14.00,2013-04-28 04:05:00,
2013-04-28 05:10:00,44.0,39.2,30.00,WSW,250,15.0,15.0,83,0.00,,---,0.00,VWS V14.00,2013-04-28 04:10:00,
2013-04-28 05:15:00,44.0,39.2,30.00,West,265,9.0,17.0,83,0.00,,---,0.00,VWS V14.00,2013-04-28 04:15:00,
2013-04-28 05:20:00,44.0,39.2,30.00,West,265,9.0,13.0,83,0.00,,---,0.00,VWS V14.00,2013-04-28 04:20:00,
2013-04-28 05:25:00,44.1,39.6,29.99,West,278,11.0,12.0,84,0.00,,---,0.00,VWS V14.00,2013-04-28 04:25:00,
2013-04-28 05:30:00,44.1,39.6,29.99,WSW,243,17.0,23.0,84,0.00,,---,0.00,VWS V14.00,2013-04-28 04:30:00,
2013-04-28 05:35:00,44.1,39.6,29.99,WNW,283,17.0,22.0,84,0.00,,---,0.00,VWS V14.00,2013-04-28 04:35:00,
2013-04-28 05:40:00,44.1,39.9,29.99,WSW,257,21.0,21.0,85,0.00,,---,0.00,VWS V14.00,2013-04-28 04:40:00,
2013-04-28 05:45:00,43.9,39.7,29.99,WNW,293,16.0,23.0,85,0.00,,---,0.00,VWS V14.00,2013-04-28 04:45:00,
2013-04-28 05:50:00,43.9,40.0,29.98,West,272,22.0,26.0,86,0.00,,---,0.00,VWS V14.00,2013-04-28 04:50:00,
2013-04-28 05:55:00,43.8,39.9,29.99,West,271,21.0,21.0,86,0.00,,---,0.00,VWS V14.00,2013-04-28 04:55:00,
2013-04-28 06:00:00,43.7,39.8,29.98,West,274,11.0,22.0,86,0.00,,---,0.00,VWS V14.00,2013-04-28 05:00:00,
2013-04-28 06:05:00,43.6,40.0,29.98,West,276,11.0,14.0,87,0.00,,---,0.00,VWS V14.00,2013-04-28 05:05:00,
2013-04-28 06:10:00,43.6,40.0,29.98,West,272,20.0,24.0,87,0.00,,---,0.00,VWS V14.00,2013-04-28 05:10:00,
2013-04-28 06:15:00,43.7,40.1,29.98,West,268,13.0,20.0,87,0.00,,---,0.00,VWS V14.00,2013-04-28 05:15:00,
2013-04-28 06:20:00,43.6,40.0,29.99,West,277,17.0,17.0,87,0.00,,---,0.00,VWS V14.00,2013-04-28 05:20:00,
2013-04-28 06:25:00,43.6,40.0,29.99,WNW,282,23.0,25.0,87,0.00,,---,0.00,VWS V14.00,2013-04-28 05:25:00,
2013-04-28 06:30:00,43.7,40.1,29.98,WNW,288,12.0,13.0,87,0.00,,---,0.00,VWS V14.00,2013-04-28 05:30:00,
2013-04-28 06:35:00,43.7,40.4,29.98,WSW,258,10.0,15.0,88,0.00,,---,0.00,VWS V14.00,2013-04-28 05:35:00,
2013-04-28 06:40:00,43.7,40.4,29.98,WSW,250,15.0,15.0,88,0.00,,---,0.00,VWS V14.00,2013-04-28 05:40:00,
2013-04-28 06:45:00,43.6,40.6,29.98,West,269,10.0,19.0,89,0.00,,---,0.00,VWS V14.00,2013-04-28 05:45:00,
2013-04-28 06:50:00,43.5,40.5,29.98,WSW,254,5.0,13.0,89,0.00,,---,0.00,VWS V14.00,2013-04-28 05:50:00,
2013-04-28 06:55:00,43.6,40.9,29.98,WNW,282,12.0,18.0,90,0.00,,---,0.00,VWS V14.00,2013-04-28 05:55:00,
2013-04-28 07:00:00,43.6,40.9,29.99,WSW,242,16.0,20.0,90,0.00,,---,0.00,VWS V14.00,2013-04-28 06:00:00,
2013-04-28 07:05:00,43.6,40.9,29.98,West,266,9.0,11.0,90,0.00,,---,0.00,VWS V14.00,2013-04-28 06:05:00,
2013-04-28 07:10:00,43.7,41.2,29.98,West,268,16.0,17.0,91,0.00,,---,0.00,VWS V14.00,2013-04-28 06:10:00,
2013-04-28 07:15:00,43.7,41.2,29.98,WSW,246,13.0,13.0,91,0.00,,---,0.00,VWS V14.00,2013-04-28 06:15:00,
2013-04-28 07:20:00,43.7,41.5,29.98,West,266,12.0,15.0,92,0.00,,---,0.00,VWS V14.00,2013-04-28 06:20:00,
2013-04-28 07:25:00,43.7,41.5,29.98,WSW,246,18.0,24.0,92,0.00,,---,0.00,VWS V14.00,2013-04-28 06:25:00,
2013-04-28 07:30:00,43.7,41.8,29.98,WSW,249,10.0,14.0,93,0.00,,---,0.00,VWS V14.00,2013-04-28 06:30:00,
2013-04-28 07:35:00,43.7,41.8,29.97,West,277,19.0,19.0,93,0.00,,---,0.00,VWS V14.00,2013-04-28 06:35:00,
2013-04-28 07:40:00,43.8,41.9,29.97,West,267,7.0,17.0,93,0.00,,---,0.00,VWS V14.00,2013-04-28 06:40:00,
2013-04-28 07:45:00,44.0,42.1,29.97,SW,226,12.0,17.0,93,0.00,,---,0.00,VWS V14.00,2013-04-28 06:45:00,
2013-04-28 07:50:00,44.1,42.2,29.96,West,280,11.0,13.0,93,0.00,,---,0.00,VWS V14.00,2013-04-28 06:50:00,
2013-04-28 07:56:00,44.4,42.5,29.96,West,261,5.0,12.0,93,0.00,,---,0.00,VWS V14.00,2013-04-28 06:56:00,
2013-04-28 08:01:00,44.5,42.6,29.96,WSW,255,14.0,16.0,93,0.00,,---,0.00,VWS V14.00,2013-04-28 07:01:00,
2013-04-28 08:07:00,44.7,42.8,29.96,West,261,2.0,9.0,93,0.00,,---,0.00,VWS V14.00,2013-04-28 07:07:00,
2013-04-28 08:12:00,45.0,43.1,29.96,West,281,9.0,11.0,93,0.00,,---,0.00,VWS V14.00,2013-04-28 07:12:00,
2013-04-28 08:17:00,45.2,43.3,29.96,West,263,11.0,17.0,93,0.00,,---,0.00,VWS V14.00,2013-04-28 07:17:00,
2013-04-28 08:22:00,45.5,43.6,29.95,WSW,258,6.0,9.0,93,0.00,,---,0.00,VWS V14.00,2013-04-28 07:22:00,
2013-04-28 08:27:00,45.8,43.6,29.95,West,269,12.0,14.0,92,0.00,,---,0.00,VWS V14.00,2013-04-28 07:27:00,
2013-04-28 08:32:00,46.0,43.8,29.95,West,268,18.0,19.0,92,0.00,,---,0.00,VWS V14.00,2013-04-28 07:32:00,
2013-04-28 08:37:00,46.3,44.1,29.95,West,276,11.0,14.0,92,0.00,,---,0.00,VWS V14.00,2013-04-28 07:37:00,
2013-04-28 08:42:00,46.4,44.2,29.95,West,275,8.0,14.0,92,0.00,,---,0.00,VWS V14.00,2013-04-28 07:42:00,
2013-04-28 08:47:00,46.6,44.1,29.95,West,274,9.0,19.0,91,0.00,,---,0.00,VWS V14.00,2013-04-28 07:47:00,
2013-04-28 08:52:00,46.6,44.1,29.95,WSW,241,9.0,11.0,91,0.00,,---,0.00,VWS V14.00,2013-04-28 07:52:00,
2013-04-28 08:57:00,46.7,44.5,29.95,WSW,254,10.0,10.0,92,0.00,,---,0.00,VWS V14.00,2013-04-28 07:57:00,
2013-04-28 09:02:00,47.1,44.9,29.95,West,263,11.0,14.0,92,0.00,,---,0.00,VWS V14.00,2013-04-28 08:02:00,
2013-04-28 09:07:00,47.3,44.8,29.94,West,271,8.0,17.0,91,0.00,,---,0.00,VWS V14.00,2013-04-28 08:07:00,
2013-04-28 09:12:00,47.5,45.0,29.94,West,276,17.0,20.0,91,0.00,,---,0.00,VWS V14.00,2013-04-28 08:12:00,
2013-04-28 09:17:00,47.6,45.1,29.94,West,274,10.0,23.0,91,0.00,,---,0.00,VWS V14.00,2013-04-28 08:17:00,
2013-04-28 09:22:00,47.7,45.2,29.93,WNW,293,15.0,17.0,91,0.00,,---,0.00,VWS V14.00,2013-04-28 08:22:00,
2013-04-28 09:27:00,47.9,45.4,29.93,West,265,11.0,15.0,91,0.00,,---,0.00,VWS V14.00,2013-04-28 08:27:00,
2013-04-28 09:32:00,47.9,45.4,29.93,West,279,11.0,20.0,91,0.00,,---,0.00,VWS V14.00,2013-04-28 08:32:00,
2013-04-28 09:37:00,48.0,45.5,29.93,WSW,250,13.0,23.0,91,0.00,,---,0.00,VWS V14.00,2013-04-28 08:37:00,
2013-04-28 09:42:00,47.8,45.6,29.93,West,264,8.0,12.0,92,0.00,,---,0.00,VWS V14.00,2013-04-28 08:42:00,
2013-04-28 09:47:00,47.5,45.3,29.93,West,278,13.0,18.0,92,0.00,,---,0.00,VWS V14.00,2013-04-28 08:47:00,
2013-04-28 09:52:00,47.5,45.6,29.93,West,281,10.0,14.0,93,0.00,,---,0.00,VWS V14.00,2013-04-28 08:52:00,
2013-04-28 09:57:00,47.8,45.9,29.92,West,260,13.0,20.0,93,0.00,,---,0.00,VWS V14.00,2013-04-28 08:57:00,
2013-04-28 10:02:00,48.2,46.0,29.92,WNW,294,14.0,16.0,92,0.00,,---,0.00,VWS V14.00,2013-04-28 09:02:00,
2013-04-28 10:07:00,48.3,46.1,29.92,West,279,11.0,17.0,92,0.00,,---,0.00,VWS V14.00,2013-04-28 09:07:00,
2013-04-28 10:12:00,48.4,45.9,29.92,West,277,7.0,22.0,91,0.00,,---,0.00,VWS V14.00,2013-04-28 09:12:00,
2013-04-28 10:17:00,48.6,46.1,29.92,West,269,6.0,13.0,91,0.00,,---,0.00,VWS V14.00,2013-04-28 09:17:00,
2013-04-28 10:22:00,48.7,45.9,29.92,West,267,10.0,16.0,90,0.00,,---,0.00,VWS V14.00,2013-04-28 09:22:00,
2013-04-28 10:27:00,48.9,46.1,29.92,West,274,16.0,16.0,90,0.00,,---,0.00,VWS V14.00,2013-04-28 09:27:00,
2013-04-28 10:32:00,49.3,46.5,29.92,WNW,288,9.0,15.0,90,0.00,,---,0.00,VWS V14.00,2013-04-28 09:32:00,
2013-04-28 10:37:00,49.3,46.2,29.91,West,267,10.0,14.0,89,0.00,,---,0.00,VWS V14.00,2013-04-28 09:37:00,
2013-04-28 10:42:00,49.4,46.3,29.91,WNW,284,10.0,16.0,89,0.00,,---,0.00,VWS V14.00,2013-04-28 09:42:00,
2013-04-28 10:47:00,49.4,46.6,29.91,West,267,9.0,13.0,90,0.00,,---,0.00,VWS V14.00,2013-04-28 09:47:00,
2013-04-28 10:52:00,49.2,46.1,29.92,WNW,294,14.0,15.0,89,0.00,,---,0.00,VWS V14.00,2013-04-28 09:52:00,
2013-04-28 10:57:00,49.2,46.4,29.91,West,267,11.0,13.0,90,0.00,,---,0.00,VWS V14.00,2013-04-28 09:57:00,
2013-04-28 11:02:00,49.4,46.6,29.91,WNW,296,13.0,16.0,90,0.00,,---,0.00,VWS V14.00,2013-04-28 10:02:00,
2013-04-28 11:07:00,49.4,46.9,29.92,WNW,303,15.0,18.0,91,0.00,,---,0.00,VWS V14.00,2013-04-28 10:07:00,
2013-04-28 11:12:00,48.3,45.8,29.92,NW,321,5.0,10.0,91,0.01,,---,0.01,VWS V14.00,2013-04-28 10:12:00,
2013-04-28 11:17:00,47.8,45.9,29.92,NW,306,7.0,7.0,93,0.02,,---,0.02,VWS V14.00,2013-04-28 10:17:00,
2013-04-28 11:22:00,47.7,45.8,29.92,NW,326,13.0,15.0,93,0.02,,---,0.02,VWS V14.00,2013-04-28 10:22:00,
2013-04-28 11:27:00,47.7,46.1,29.92,NW,324,4.0,9.0,94,0.02,,---,0.02,VWS V14.00,2013-04-28 10:27:00,
2013-04-28 11:32:00,47.8,45.9,29.92,NW,308,6.0,10.0,93,0.02,,---,0.02,VWS V14.00,2013-04-28 10:32:00,
2013-04-28 11:37:00,47.8,45.9,29.92,NW,313,10.0,10.0,93,0.02,,---,0.02,VWS V14.00,2013-04-28 10:37:00,
2013-04-28 11:42:00,48.1,46.2,29.92,WNW,298,6.0,10.0,93,0.02,,---,0.02,VWS V14.00,2013-04-28 10:42:00,
2013-04-28 11:47:00,48.2,46.0,29.92,WNW,294,9.0,9.0,92,0.02,,---,0.02,VWS V14.00,2013-04-28 10:47:00,
2013-04-28 11:52:00,48.3,46.1,29.92,NW,325,10.0,15.0,92,0.02,,---,0.02,VWS V14.00,2013-04-28 10:52:00,
2013-04-28 11:57:00,48.1,45.9,29.91,WNW,296,11.0,11.0,92,0.02,,---,0.02,VWS V14.00,2013-04-28 10:57:00,
2013-04-28 12:02:00,48.1,45.9,29.91,NW,313,6.0,6.0,92,0.02,,---,0.02,VWS V14.00,2013-04-28 11:02:00,
2013-04-28 12:07:00,48.2,46.3,29.91,WNW,298,3.0,5.0,93,0.02,,---,0.02,VWS V14.00,2013-04-28 11:07:00,
2013-04-28 12:12:00,48.3,46.1,29.90,NW,304,4.0,5.0,92,0.01,,---,0.02,VWS V14.00,2013-04-28 11:12:00,
2013-04-28 12:17:00,48.4,46.2,29.90,WNW,302,8.0,8.0,92,0.00,,---,0.02,VWS V14.00,2013-04-28 11:17:00,
2013-04-28 12:22:00,48.7,46.2,29.90,NW,304,14.0,14.0,91,0.00,,---,0.02,VWS V14.00,2013-04-28 11:22:00,
2013-04-28 12:27:00,48.8,46.0,29.90,WNW,292,7.0,7.0,90,0.00,,---,0.02,VWS V14.00,2013-04-28 11:27:00,
2013-04-28 12:32:00,49.1,45.7,29.90,WNW,296,10.0,10.0,88,0.00,,---,0.02,VWS V14.00,2013-04-28 11:32:00,
2013-04-28 12:37:00,49.5,45.5,29.90,NW,310,15.0,15.0,86,0.00,,---,0.02,VWS V14.00,2013-04-28 11:37:00,
2013-04-28 12:42:00,50.0,44.1,29.90,WNW,286,12.0,17.0,80,0.00,,---,0.02,VWS V14.00,2013-04-28 11:42:00,
2013-04-28 12:47:00,50.3,43.7,29.90,WNW,287,11.0,21.0,78,0.00,,---,0.02,VWS V14.00,2013-04-28 11:47:00,
2013-04-28 12:52:00,50.6,43.3,29.90,NNW,333,12.0,17.0,76,0.00,,---,0.02,VWS V14.00,2013-04-28 11:52:00,
2013-04-28 12:57:00,50.8,43.2,29.89,WNW,298,15.0,20.0,75,0.00,,---,0.02,VWS V14.00,2013-04-28 11:57:00,
2013-04-28 13:02:00,51.0,43.4,29.89,WNW,298,13.0,14.0,75,0.00,,---,0.02,VWS V14.00,2013-04-28 12:02:00,
2013-04-28 13:07:00,51.1,43.5,29.89,NNW,333,13.0,13.0,75,0.00,,---,0.02,VWS V14.00,2013-04-28 12:07:00,
2013-04-28 13:12:00,51.0,42.7,29.89,NW,305,17.0,21.0,73,0.00,,---,0.02,VWS V14.00,2013-04-28 12:12:00,
2013-04-28 13:17:00,50.7,41.7,29.89,WNW,289,12.0,19.0,71,0.00,,---,0.02,VWS V14.00,2013-04-28 12:17:00,
2013-04-28 13:22:00,50.9,42.2,29.89,NW,313,17.0,17.0,72,0.00,,---,0.02,VWS V14.00,2013-04-28 12:22:00,
2013-04-28 13:27:00,50.8,41.4,29.89,WNW,297,16.0,18.0,70,0.00,,---,0.02,VWS V14.00,2013-04-28 12:27:00,
2013-04-28 13:33:00,50.6,41.6,29.89,WNW,288,21.0,28.0,71,0.00,,---,0.02,VWS V14.00,2013-04-28 12:33:00,
2013-04-28 13:38:00,50.3,40.9,29.89,WNW,292,14.0,22.0,70,0.00,,---,0.02,VWS V14.00,2013-04-28 12:38:00,
2013-04-28 13:43:00,50.2,40.8,29.89,WNW,285,15.0,22.0,70,0.00,,---,0.02,VWS V14.00,2013-04-28 12:43:00,
2013-04-28 13:48:00,50.3,41.3,29.89,West,275,12.0,19.0,71,0.00,,---,0.02,VWS V14.00,2013-04-28 12:48:00,
2013-04-28 13:53:00,50.5,41.1,29.88,West,281,14.0,16.0,70,0.00,,---,0.02,VWS V14.00,2013-04-28 12:53:00,
2013-04-28 13:58:00,50.7,40.9,29.88,WNW,282,19.0,19.0,69,0.00,,---,0.02,VWS V14.00,2013-04-28 12:58:00,
2013-04-28 14:03:00,50.9,41.1,29.88,WNW,286,16.0,19.0,69,0.00,,---,0.02,VWS V14.00,2013-04-28 13:03:00,
2013-04-28 14:08:00,51.1,41.7,29.88,West,281,13.0,19.0,70,0.00,,---,0.02,VWS V14.00,2013-04-28 13:08:00,
2013-04-28 14:13:00,51.4,42.3,29.87,West,275,18.0,18.0,71,0.00,,---,0.02,VWS V14.00,2013-04-28 13:13:00,
2013-04-28 14:18:00,51.3,42.6,29.88,West,277,21.0,21.0,72,0.00,,---,0.02,VWS V14.00,2013-04-28 13:18:00,
2013-04-28 14:23:00,51.2,42.1,29.87,WNW,284,11.0,19.0,71,0.00,,---,0.02,VWS V14.00,2013-04-28 13:23:00,
2013-04-28 14:28:00,51.2,41.8,29.87,WNW,303,11.0,12.0,70,0.00,,---,0.02,VWS V14.00,2013-04-28 13:28:00,
2013-04-28 14:33:00,51.9,42.8,29.87,West,259,18.0,19.0,71,0.00,,---,0.02,VWS V14.00,2013-04-28 13:33:00,
2013-04-28 14:38:00,53.0,43.5,29.87,West,277,13.0,13.0,70,0.00,,---,0.02,VWS V14.00,2013-04-28 13:38:00,
2013-04-28 14:43:00,53.0,42.3,29.87,NW,304,22.0,23.0,67,0.00,,---,0.02,VWS V14.00,2013-04-28 13:43:00,
2013-04-28 14:48:00,52.5,42.3,29.87,WNW,301,13.0,23.0,68,0.00,,---,0.02,VWS V14.00,2013-04-28 13:48:00,
2013-04-28 14:53:00,52.8,42.2,29.86,NW,304,20.0,22.0,67,0.00,,---,0.02,VWS V14.00,2013-04-28 13:53:00,
2013-04-28 14:58:00,52.7,41.3,29.87,WNW,284,19.0,19.0,65,0.00,,---,0.02,VWS V14.00,2013-04-28 13:58:00,
2013-04-28 15:03:00,52.2,40.8,29.86,WNW,286,26.0,27.0,65,0.00,,---,0.02,VWS V14.00,2013-04-28 14:03:00,
2013-04-28 15:08:00,52.6,42.0,29.86,WNW,302,15.0,23.0,67,0.00,,---,0.02,VWS V14.00,2013-04-28 14:08:00,
2013-04-28 15:13:00,52.9,42.3,29.85,WNW,289,12.0,20.0,67,0.00,,---,0.02,VWS V14.00,2013-04-28 14:13:00,
2013-04-28 15:18:00,53.1,42.1,29.85,West,272,16.0,21.0,66,0.00,,---,0.02,VWS V14.00,2013-04-28 14:18:00,
2013-04-28 15:23:00,52.6,42.0,29.85,WNW,299,9.0,13.0,67,0.00,,---,0.02,VWS V14.00,2013-04-28 14:23:00,
2013-04-28 15:28:00,52.1,41.5,29.85,NW,322,14.0,17.0,67,0.00,,---,0.02,VWS V14.00,2013-04-28 14:28:00,
2013-04-28 15:33:00,52.0,41.0,29.85,WNW,295,12.0,21.0,66,0.00,,---,0.02,VWS V14.00,2013-04-28 14:33:00,
2013-04-28 15:38:00,52.1,40.3,29.85,NW,306,14.0,19.0,64,0.00,,---,0.02,VWS V14.00,2013-04-28 14:38:00,
2013-04-28 15:43:00,52.4,41.0,29.85,NW,311,12.0,21.0,65,0.00,,---,0.02,VWS V14.00,2013-04-28 14:43:00,
2013-04-28 15:48:00,52.5,41.1,29.85,WNW,294,9.0,15.0,65,0.00,,---,0.02,VWS V14.00,2013-04-28 14:48:00,
2013-04-28 15:53:00,52.3,41.3,29.85,NNW,335,18.0,23.0,66,0.00,,---,0.02,VWS V14.00,2013-04-28 14:53:00,
2013-04-28 15:58:00,51.5,42.8,29.86,WNW,291,8.0,19.0,72,0.00,,---,0.02,VWS V14.00,2013-04-28 14:58:00,
2013-04-28 16:03:00,50.7,43.4,29.86,NW,305,10.0,15.0,76,0.00,,---,0.02,VWS V14.00,2013-04-28 15:03:00,
2013-04-28 16:08:00,50.3,43.7,29.85,NW,309,16.0,16.0,78,0.00,,---,0.02,VWS V14.00,2013-04-28 15:08:00,
2013-04-28 16:13:00,50.6,43.3,29.85,NNW,340,9.0,14.0,76,0.00,,---,0.02,VWS V14.00,2013-04-28 15:13:00,
2013-04-28 16:18:00,51.3,43.7,29.85,NW,324,14.0,16.0,75,0.00,,---,0.02,VWS V14.00,2013-04-28 15:18:00,
2013-04-28 16:23:00,51.8,44.5,29.85,NW,315,22.0,24.0,76,0.00,,---,0.02,VWS V14.00,2013-04-28 15:23:00,
2013-04-28 16:28:00,50.6,43.3,29.85,NW,318,18.0,19.0,76,0.00,,---,0.02,VWS V14.00,2013-04-28 15:28:00,
2013-04-28 16:33:00,49.3,42.7,29.85,NW,317,12.0,19.0,78,0.00,,---,0.02,VWS V14.00,2013-04-28 15:33:00,
2013-04-28 16:38:00,49.2,43.3,29.85,NW,323,11.0,13.0,80,0.00,,---,0.02,VWS V14.00,2013-04-28 15:38:00,
2013-04-28 16:43:00,49.6,43.4,29.85,NW,315,11.0,16.0,79,0.00,,---,0.02,VWS V14.00,2013-04-28 15:43:00,
2013-04-28 16:48:00,49.9,43.7,29.85,NW,307,16.0,18.0,79,0.00,,---,0.02,VWS V14.00,2013-04-28 15:48:00,
2013-04-28 16:53:00,50.2,42.9,29.85,WNW,284,5.0,11.0,76,0.00,,---,0.02,VWS V14.00,2013-04-28 15:53:00,
2013-04-28 16:58:00,50.7,41.7,29.85,WNW,301,6.0,18.0,71,0.00,,---,0.02,VWS V14.00,2013-04-28 15:58:00,
2013-04-28 17:03:00,51.1,41.7,29.85,NW,325,6.0,15.0,70,0.00,,---,0.02,VWS V14.00,2013-04-28 16:03:00,
2013-04-28 17:08:00,50.9,41.8,29.85,WNW,302,16.0,32.0,71,0.02,,---,0.03,VWS V14.00,2013-04-28 16:08:00,
2013-04-28 17:13:00,48.3,42.1,29.86,NW,307,15.0,21.0,79,0.02,,---,0.04,VWS V14.00,2013-04-28 16:13:00,
2013-04-28 17:18:00,46.8,41.6,29.86,NW,319,6.0,13.0,82,0.02,,---,0.04,VWS V14.00,2013-04-28 16:18:00,
2013-04-28 17:23:00,46.4,42.5,29.85,NNW,336,9.0,11.0,86,0.02,,---,0.04,VWS V14.00,2013-04-28 16:23:00,
2013-04-28 17:28:00,46.5,42.8,29.86,NW,309,14.0,15.0,87,0.02,,---,0.04,VWS V14.00,2013-04-28 16:28:00,
2013-04-28 17:33:00,46.9,42.9,29.86,NW,324,7.0,11.0,86,0.02,,---,0.04,VWS V14.00,2013-04-28 16:33:00,
2013-04-28 17:38:00,47.4,42.8,29.85,WNW,298,5.0,15.0,84,0.02,,---,0.04,VWS V14.00,2013-04-28 16:38:00,
2013-04-28 17:43:00,47.7,42.8,29.86,NNW,327,28.0,28.0,83,0.02,,---,0.04,VWS V14.00,2013-04-28 16:43:00,
2013-04-28 17:48:00,47.8,42.6,29.86,NNW,328,12.0,20.0,82,0.03,,---,0.05,VWS V14.00,2013-04-28 16:48:00,
2013-04-28 17:53:00,47.7,41.8,29.86,NW,314,6.0,12.0,80,0.03,,---,0.05,VWS V14.00,2013-04-28 16:53:00,
2013-04-28 17:58:00,47.8,42.3,29.85,WNW,290,12.0,12.0,81,0.03,,---,0.05,VWS V14.00,2013-04-28 16:58:00,
2013-04-28 18:03:00,48.0,42.5,29.85,NNW,330,9.0,11.0,81,0.03,,---,0.05,VWS V14.00,2013-04-28 17:03:00,
2013-04-28 18:08:00,48.1,42.5,29.85,NNW,329,10.0,12.0,81,0.03,,---,0.05,VWS V14.00,2013-04-28 17:08:00,
2013-04-28 18:13:00,48.1,42.5,29.85,WNW,300,15.0,22.0,81,0.01,,---,0.05,VWS V14.00,2013-04-28 17:13:00,
2013-04-28 18:18:00,48.4,42.5,29.85,WNW,295,19.0,20.0,80,0.01,,---,0.05,VWS V14.00,2013-04-28 17:18:00,
2013-04-28 18:23:00,48.9,42.0,29.85,NW,305,13.0,21.0,77,0.01,,---,0.05,VWS V14.00,2013-04-28 17:23:00,
2013-04-28 18:29:00,49.0,41.4,29.85,WNW,303,10.0,11.0,75,0.01,,---,0.05,VWS V14.00,2013-04-28 17:29:00,
2013-04-28 18:34:00,49.1,41.9,29.85,WNW,295,19.0,19.0,76,0.01,,---,0.05,VWS V14.00,2013-04-28 17:34:00,
2013-04-28 18:39:00,48.8,41.6,29.85,NW,324,9.0,16.0,76,0.01,,---,0.05,VWS V14.00,2013-04-28 17:39:00,
2013-04-28 18:44:00,48.1,41.6,29.85,NNW,336,9.0,11.0,78,0.01,,---,0.05,VWS V14.00,2013-04-28 17:44:00,
2013-04-28 18:49:00,47.7,41.8,29.85,NNW,329,13.0,15.0,80,0.00,,---,0.05,VWS V14.00,2013-04-28 17:49:00,
2013-04-28 18:54:00,47.8,41.9,29.85,NW,321,12.0,20.0,80,0.00,,---,0.05,VWS V14.00,2013-04-28 17:54:00,
2013-04-28 19:00:00,48.1,41.6,29.85,NW,326,8.0,10.0,78,0.00,,---,0.05,VWS V14.00,2013-04-28 18:00:00,
2013-04-28 19:05:00,48.1,41.6,29.85,NW,323,9.0,9.0,78,0.00,,---,0.05,VWS V14.00,2013-04-28 18:05:00,
2013-04-28 19:10:00,47.9,40.7,29.85,NW,305,9.0,14.0,76,0.02,,---,0.07,VWS V14.00,2013-04-28 18:10:00,
2013-04-28 19:15:00,48.2,40.7,29.85,WNW,303,13.0,22.0,75,0.02,,---,0.07,VWS V14.00,2013-04-28 18:15:00,
2013-04-28 19:21:00,47.9,39.0,29.85,WNW,289,13.0,17.0,71,0.02,,---,0.07,VWS V14.00,2013-04-28 18:21:00,
2013-04-28 19:26:00,47.7,38.4,29.84,WNW,298,18.0,24.0,70,0.02,,---,0.07,VWS V14.00,2013-04-28 18:26:00,
2013-04-28 19:31:00,47.6,38.7,29.85,WNW,298,10.0,17.0,71,0.02,,---,0.07,VWS V14.00,2013-04-28 18:31:00,
2013-04-28 19:36:00,47.6,38.3,29.85,NW,315,15.0,16.0,70,0.02,,---,0.07,VWS V14.00,2013-04-28 18:36:00,
2013-04-28 19:41:00,47.4,38.1,29.85,NNW,346,17.0,20.0,70,0.02,,---,0.07,VWS V14.00,2013-04-28 18:41:00,
2013-04-28 19:47:00,47.3,38.4,29.85,WNW,291,13.0,17.0,71,0.02,,---,0.07,VWS V14.00,2013-04-28 18:47:00,
2013-04-28 19:52:00,47.2,38.7,29.85,WNW,294,11.0,13.0,72,0.02,,---,0.07,VWS V14.00,2013-04-28 18:52:00,
2013-04-28 19:57:00,47.1,38.9,29.85,WNW,285,12.0,12.0,73,0.02,,---,0.07,VWS V14.00,2013-04-28 18:57:00,
2013-04-28 20:02:00,47.1,39.2,29.86,NW,306,10.0,14.0,74,0.02,,---,0.07,VWS V14.00,2013-04-28 19:02:00,
2013-04-28 20:07:00,46.4,39.6,29.87,NNW,328,22.0,25.0,77,0.02,,---,0.07,VWS V14.00,2013-04-28 19:07:00,
2013-04-28 20:12:00,44.3,38.2,29.88,NNW,348,16.0,28.0,79,0.01,,---,0.08,VWS V14.00,2013-04-28 19:12:00,
2013-04-28 20:17:00,42.9,37.8,29.87,WNW,296,10.0,11.0,82,0.01,,---,0.08,VWS V14.00,2013-04-28 19:17:00,
2013-04-28 20:22:00,42.6,37.8,29.86,NW,309,16.0,16.0,83,0.01,,---,0.08,VWS V14.00,2013-04-28 19:22:00,
2013-04-28 20:28:00,42.9,38.4,29.86,WNW,288,12.0,14.0,84,0.01,,---,0.08,VWS V14.00,2013-04-28 19:28:00,
2013-04-28 20:33:00,43.3,38.5,29.86,WNW,290,14.0,14.0,83,0.01,,---,0.08,VWS V14.00,2013-04-28 19:33:00,
2013-04-28 20:38:00,43.5,38.4,29.87,West,275,12.0,12.0,82,0.01,,---,0.08,VWS V14.00,2013-04-28 19:38:00,
2013-04-28 20:43:00,43.6,38.2,29.87,NW,305,4.0,12.0,81,0.01,,---,0.08,VWS V14.00,2013-04-28 19:43:00,
2013-04-28 20:48:00,43.7,38.3,29.87,WNW,296,14.0,14.0,81,0.01,,---,0.08,VWS V14.00,2013-04-28 19:48:00,
2013-04-28 20:54:00,43.8,38.4,29.87,WNW,288,10.0,10.0,81,0.01,,---,0.08,VWS V14.00,2013-04-28 19:54:00,
2013-04-28 20:59:00,43.8,38.4,29.87,West,266,20.0,25.0,81,0.01,,---,0.08,VWS V14.00,2013-04-28 19:59:00,
2013-04-28 21:04:00,43.9,38.5,29.87,West,277,11.0,18.0,81,0.01,,---,0.08,VWS V14.00,2013-04-28 20:04:00,
2013-04-28 21:09:00,43.9,38.5,29.88,WNW,300,9.0,12.0,81,0.00,,---,0.08,VWS V14.00,2013-04-28 20:09:00,
2013-04-28 21:14:00,44.0,38.9,29.88,WNW,299,15.0,22.0,82,0.00,,---,0.08,VWS V14.00,2013-04-28 20:14:00,
2013-04-28 21:19:00,44.1,39.0,29.89,West,278,13.0,25.0,82,0.00,,---,0.08,VWS V14.00,2013-04-28 20:19:00,
2013-04-28 21:24:00,43.6,38.8,29.90,North,355,11.0,17.0,83,0.00,,---,0.08,VWS V14.00,2013-04-28 20:24:00,
2013-04-28 21:29:00,42.5,38.3,29.90,WNW,293,6.0,12.0,85,0.00,,---,0.08,VWS V14.00,2013-04-28 20:29:00,
2013-04-28 21:34:00,41.8,38.2,29.89,NW,307,9.0,12.0,87,0.00,,---,0.08,VWS V14.00,2013-04-28 20:34:00,
2013-04-28 21:39:00,41.5,38.2,29.90,NW,306,12.0,13.0,88,0.00,,---,0.08,VWS V14.00,2013-04-28 20:39:00,
2013-04-28 21:44:00,41.5,38.5,29.90,WNW,295,12.0,12.0,89,0.00,,---,0.08,VWS V14.00,2013-04-28 20:44:00,
2013-04-28 21:49:00,41.5,38.5,29.89,NW,310,19.0,25.0,89,0.00,,---,0.08,VWS V14.00,2013-04-28 20:49:00,
2013-04-28 21:54:00,41.7,38.4,29.90,WNW,294,7.0,7.0,88,0.00,,---,0.08,VWS V14.00,2013-04-28 20:54:00,
2013-04-28 21:59:00,41.8,38.5,29.89,WNW,301,6.0,16.0,88,0.00,,---,0.08,VWS V14.00,2013-04-28 20:59:00,
2013-04-28 22:04:00,42.0,38.7,29.89,WNW,296,12.0,15.0,88,0.00,,---,0.08,VWS V14.00,2013-04-28 21:04:00,
2013-04-28 22:09:00,42.3,38.7,29.89,NW,307,6.0,14.0,87,0.00,,---,0.08,VWS V14.00,2013-04-28 21:09:00,
2013-04-28 22:14:00,42.4,38.5,29.89,WNW,294,13.0,16.0,86,0.00,,---,0.08,VWS V14.00,2013-04-28 21:14:00,
2013-04-28 22:19:00,42.5,38.6,29.89,WNW,302,13.0,16.0,86,0.00,,---,0.08,VWS V14.00,2013-04-28 21:19:00,
2013-04-28 22:24:00,42.4,38.5,29.89,WNW,284,12.0,13.0,86,0.00,,---,0.08,VWS V14.00,2013-04-28 21:24:00,
2013-04-28 22:29:00,42.3,38.1,29.90,WNW,284,12.0,20.0,85,0.00,,---,0.08,VWS V14.00,2013-04-28 21:29:00,
2013-04-28 22:34:00,42.2,38.0,29.90,West,281,9.0,14.0,85,0.00,,---,0.08,VWS V14.00,2013-04-28 21:34:00,
2013-04-28 22:39:00,42.2,38.0,29.90,NW,311,10.0,15.0,85,0.00,,---,0.08,VWS V14.00,2013-04-28 21:39:00,
2013-04-28 22:44:00,42.1,37.9,29.90,WNW,292,18.0,23.0,85,0.00,,---,0.08,VWS V14.00,2013-04-28 21:44:00,
2013-04-28 22:49:00,42.0,37.8,29.90,WNW,286,13.0,19.0,85,0.00,,---,0.08,VWS V14.00,2013-04-28 21:49:00,
2013-04-28 22:54:00,41.9,37.7,29.90,WNW,287,12.0,19.0,85,0.00,,---,0.08,VWS V14.00,2013-04-28 21:54:00,
2013-04-28 22:59:00,41.9,37.7,29.90,West,277,17.0,17.0,85,0.00,,---,0.08,VWS V14.00,2013-04-28 21:59:00,
2013-04-28 23:04:00,41.8,37.6,29.90,WNW,297,13.0,15.0,85,0.00,,---,0.08,VWS V14.00,2013-04-28 22:04:00,
2013-04-28 23:09:00,41.7,37.5,29.90,WNW,300,10.0,16.0,85,0.00,,---,0.08,VWS V14.00,2013-04-28 22:09:00,
2013-04-28 23:14:00,41.7,37.5,29.90,WNW,294,18.0,18.0,85,0.00,,---,0.08,VWS V14.00,2013-04-28 22:14:00,
2013-04-28 23:19:00,41.6,37.1,29.90,West,273,14.0,20.0,84,0.00,,---,0.08,VWS V14.00,2013-04-28 22:19:00,
2013-04-28 23:24:00,41.6,37.1,29.90,WNW,285,20.0,21.0,84,0.00,,---,0.08,VWS V14.00,2013-04-28 22:24:00,
2013-04-28 23:29:00,41.6,37.1,29.90,West,273,12.0,19.0,84,0.00,,---,0.08,VWS V14.00,2013-04-28 22:29:00,
2013-04-28 23:34:00,41.6,37.1,29.90,WNW,294,13.0,14.0,84,0.00,,---,0.08,VWS V14.00,2013-04-28 22:34:00,
2013-04-28 23:39:00,41.6,37.1,29.90,WNW,296,20.0,20.0,84,0.00,,---,0.08,VWS V14.00,2013-04-28 22:39:00,
2013-04-28 23:44:00,41.6,37.1,29.90,WNW,289,14.0,19.0,84,0.01,,---,0.09,VWS V14.00,2013-04-28 22:44:00,
2013-04-28 23:49:00,41.5,37.0,29.90,WNW,283,10.0,16.0,84,0.01,,---,0.09,VWS V14.00,2013-04-28 22:49:00,
2013-04-28 23:54:00,41.4,37.2,29.90,West,273,15.0,18.0,85,0.01,,---,0.09,VWS V14.00,2013-04-28 22:54:00,
2013-04-28 23:59:00,41.2,37.0,29.91,WNW,284,16.0,18.0,85,0.01,,---,0.00,VWS V14.00,2013-04-28 22:59:00,